CAPE
0 0 0 1 0 0 1 2 3 2 0 0 2 2 2 3 4 0 0 0 0 0 0 0 0 0 0 0 0 0 0 0 0 0 0 0 0 0 0 0 0 0 0 0 0 0 0 0 0 0 0 0 0 0
0 0 0 0 0 2 1 1 0 0 1 1 1 4 2 0 2 0 0 0 0 0 0 0 0 0 0 0 0 0 0 0 0 0 0 0 0 0 0 0 0 0 0 0 0 0 0 0 0 0 0 0 0 0
0 0 0 0 0 0 0 1 1 1 1 2 2 3 2 0 2 1 0 0 0 0 0 0 0 0 0 0 0 0 0 0 0 0 0 0 0 0 0 0 0 0 0 0 0 1 0 0 0 0 0 0 0 0
0 0 0 0 0 0 0 0 1 3 2 3 4 1 3 1 2 3 0 0 0 0 0 0 0 0 0 0 0 0 0 0 0 0 0 0 0 0 0 1 0 0 3 1 0 20 0 0 0 0 0 0 0 12
1 0 0 0 0 0 0 1 1 2 0 1 4 5 2 4 3 2 0 0 0 0 0 0 0 0 0 0 0 0 0 0 0 0 0 0 0 0 0 0 0 0 32 37 23 3 0 0 0 0 0 0 1 50
1 1 1 0 0 0 0 0 1 1 1 3 4 0 2 0 0 0 0 0 0 0 0 0 0 0 0 0 0 0 0 0 0 0 0 0 0 0 0 0 0 0 0 0 0 0 0 0 0 0 0 0 118 104
2 2 1 1 1 0 0 0 0 1 2 1 2 1 6 1 0 0 0 0 0 0 0 0 0 0 0 0 0 0 0 0 0 0 0 0 0 0 0 0 0 0 0 0 0 0 0 0 0 65 113 205 273 154
3 2 2 1 1 1 0 0 0 0 0 0 1 4 3 0 0 0 0 0 0 0 0 0 0 0 0 0 0 0 0 0 0 0 0 0 0 0 0 0 0 0 0 0 0 0 0 0 24 73 138 249 323 278
6 3 2 1 1 1 0 0 0 0 0 1 0 0 0 0 0 0 0 0 0 0 0 0 0 0 0 0 0 0 0 0 0 0 0 0 0 0 0 0 0 0 2 0 0 0 0 0 0 44 87 154 261 286
8 5 2 0 1 1 0 0 0 0 0 0 0 0 0 0 0 0 0 0 0 0 0 1 0 0 0 0 0 0 0 0 0 0 0 1 0 0 37 19 28 200 201 64 76 22 42 99 73 36 32 29 100 279
8 5 2 1 1 1 1 0 0 0 0 0 0 0 0 0 0 0 0 0 0 0 0 0 0 0 0 0 0 0 0 0 2 0 2 4 14 35 51 4 0 0 108 294 164 79 50 21 120 246 304 120 57 169
8 2 1 1 1 1 1 0 0 0 0 0 0 0 0 0 1 2 0 0 1 0 0 0 0 0 0 0 0 0 10 0 4 1 18 19 35 40 27 9 0 0 8 189 235 117 117 108 110 166 214 174 28 16
9 1 1 1 1 1 1 0 0 0 0 0 0 0 0 0 0 0 0 0 0 0 0 0 0 0 0 0 4 0 0 0 0 1 5 1 27 15 9 4 0 0 2 32 104 263 112 36 10 39 65 63 19 0
9 3 0 0 0 1 1 0 0 0 0 0 0 0 0 0 0 0 0 0 0 0 0 0 0 0 0 10 1 0 0 0 0 48 42 5 1 0 0 0 0 2 0 0 0 0 0 0 0 0 8 4 5 5
10 3 0 1 1 0 1 0 0 0 0 0 0 0 0 0 0 0 0 0 0 0 0 0 0 0 0 3 0 0 0 0 3 3 7 0 0 0 0 2 2 0 0 0 0 0 0 0 0 0 0 0 0 0
8 1 1 0 0 0 1 0 0 0 3 3 1 1 0 0 0 0 0 0 0 0 0 0 0 0 0 0 0 0 4 9 1 0 0 0 0 0 0 0 0 0 0 0 0 0 0 0 0 0 0 0 0 0
4 3 0 0 0 0 0 0 0 3 3 1 0 0 0 0 0 0 0 0 0 0 1 0 1 1 0 0 0 0 0 0 0 0 0 0 0 0 0 0 0 0 0 0 0 0 0 0 0 0 0 0 24 0
3 0 0 0 0 0 0 0 0 3 2 0 0 0 0 0 0 0 13 0 0 0 0 0 0 0 0 0 0 0 0 0 3 0 0 2 3 0 0 0 0 0 0 0 0 0 0 0 0 0 0 0 4 0
6 4 2 0 0 0 0 0 0 5 0 0 0 0 0 0 0 0 0 0 0 0 0 0 0 0 0 0 0 0 4 5 4 4 17 18 7 1 0 0 0 0 0 0 0 0 0 0 0 1 1 4 2 1
2 3 4 4 4 0 0 0 0 3 0 0 0 0 0 4 2 7 4 0 0 0 0 0 0 0 0 1 4 4 6 3 1 0 0 2 1 0 0 2 3 1 0 0 1 0 0 0 0 0 1 1 2 1
2 6 4 4 5 3 1 0 0 2 0 0 0 0 0 4 5 0 0 0 0 0 0 0 0 0 0 3 3 9 13 13 7 7 4 0 1 0 2 3 9 10 2 2 2 0 0 0 0 0 1 1 0 0
6 2 2 5 3 0 0 0 0 0 0 0 0 0 3 31 21 2 0 0 0 0 0 0 0 0 0 0 0 0 1 3 2 7 10 3 4 3 3 4 3 3 8 0 0 1 1 0 0 0 0 0 0 0
0 1 4 3 3 3 0 0 0 0 0 0 0 3 9 17 1 0 0 0 0 0 0 0 0 0 0 0 0 0 0 0 0 0 1 5 5 6 7 1 1 1 2 0 0 0 0 0 0 0 0 0 0 0
0 3 3 8 21 1 0 2 0 0 0 0 0 10 8 3 0 0 0 0 0 0 0 0 0 0 0 0 0 0 0 0 0 0 0 0 0 5 6 10 3 1 4 0 3 0 0 0 0 0 0 0 0 0
68 9 1 0 9 15 15 18 0 0 31 18 12 28 34 3 16 0 0 0 0 0 0 0 0 0 0 0 0 0 0 0 0 0 0 0 0 0 0 11 3 3 2 7 10 9 17 11 0 2 5 1 0 0
52 12 1 0 2 17 32 34 0 0 17 52 52 15 9 10 5 0 0 0 0 0 0 0 0 0 0 0 0 0 0 0 0 0 0 0 0 0 0 0 7 3 3 0 0 0 0 17 23 15 4 0 0 0
1 7 1 0 0 0 0 0 11 27 18 32 45 9 17 21 4 0 0 0 0 0 0 0 0 0 0 0 0 0 0 0 0 3 0 0 0 0 0 0 0 0 9 36 41 32 17 25 40 20 40 32 21 13
0 0 6 1 0 0 0 3 17 0 0 0 0 9 39 30 5 0 0 0 0 0 0 0 0 0 0 0 0 0 0 0 0 0 0 0 0 0 0 0 0 0 0 0 4 22 22 26 43 34 40 36 46 10
2 0 0 0 0 0 0 3 11 3 0 0 7 10 4 0 0 0 0 0 0 0 0 0 0 0 0 0 0 0 0 0 0 7 0 0 0 0 0 0 0 0 0 0 0 0 0 0 0 0 0 0 0 0
0 0 0 0 0 0 0 0 0 0 0 0 0 0 0 0 0 0 0 0 0 0 0 0 0 0 0 0 0 0 0 0 0 0 0 0 0 0 0 0 0 0 0 0 0 0 0 0 0 0 0 0 0 0
0 0 0 0 0 0 0 0 0 1 15 0 0 0 0 0 0 0 0 0 0 0 0 0 0 0 0 0 0 0 0 0 0 0 0 0 0 0 0 0 0 0 0 0 0 0 0 0 0 0 0 0 0 0
0 0 0 0 0 0 4 0 1 0 0 0 3 0 2 4 2 0 0 0 0 0 0 0 0 0 0 0 0 0 0 0 0 0 0 0 0 0 0 0 0 0 0 0 0 0 0 0 0 0 0 0 0 0
0 0 0 0 4 15 18 2 0 0 0 0 0 0 0 0 0 0 0 0 0 0 0 0 0 0 0 0 0 0 0 0 0 0 0 0 0 0 0 0 0 0 0 0 0 0 0 0 0 0 0 0 0 0
CIN
0 0 0 -26 0 0 0 0 0 0 0 0 0 0 0 0 0 0 0 0 0 0 0 0 0 0 0 0 0 0 0 0 0 0 0 0 0 0 0 0 0 0 0 0 0 0 0 0 0 0 0 0 0 0
0 0 0 0 0 0 0 0 0 0 0 0 0 0 0 0 0 0 0 0 0 0 0 0 0 0 0 0 0 0 0 0 0 0 0 0 0 0 0 0 0 0 0 0 0 0 0 0 0 0 0 0 0 0
0 0 0 0 0 0 0 0 0 0 0 0 0 0 0 0 -1 0 0 0 0 0 0 0 0 0 0 0 0 0 0 0 0 0 0 0 0 0 0 0 0 0 0 0 -1 -22 0 0 0 0 0 0 0 0
0 0 0 0 0 0 0 0 0 0 0 0 0 0 0 0 0 -1 0 0 0 0 0 0 0 0 0 0 0 0 0 0 0 0 0 0 0 0 0 -12 0 0 -40 -19 0 -86 0 0 0 0 0 0 0 -109
0 0 0 0 0 0 0 0 0 0 0 -4 0 0 0 0 0 -7 0 0 0 0 0 0 0 0 0 0 0 0 0 0 0 0 0 0 0 0 0 0 0 0 -166 -103 -126 -31 0 0 0 0 0 0 -60 -233
0 0 0 0 0 0 0 0 -1 -6 -7 -3 0 0 0 0 0 0 0 0 0 0 0 0 0 0 0 0 0 0 0 0 0 0 0 0 0 0 0 0 0 0 0 0 -13 0 0 0 0 0 0 0 -186 -149
0 0 0 0 0 0 0 0 0 -13 -11 -6 0 0 0 0 0 0 0 0 0 0 0 0 0 0 0 0 0 0 0 0 0 0 0 0 0 0 0 0 0 0 0 0 0 0 0 0 0 -238 -217 -171 -133 -102
0 0 0 0 0 0 0 0 0 0 -15 -7 0 0 0 0 0 0 0 0 0 0 0 0 0 0 0 0 0 0 0 0 0 0 0 0 0 0 0 0 0 0 0 0 0 0 0 0 -259 -247 -215 -183 -109 -58
0 0 0 0 0 0 0 0 0 0 0 0 0 0 0 0 0 0 0 0 0 0 0 0 0 0 0 0 0 0 0 0 0 0 0 0 0 0 0 0 0 0 -70 0 0 0 0 0 0 -266 -236 -194 -107 -96
0 0 -1 -1 0 0 0 0 0 0 0 0 0 0 0 0 0 0 0 0 0 0 0 0 0 0 0 0 0 0 0 0 0 0 0 -1 -1 -1 -139 -211 -289 -213 -219 -275 -171 -186 -211 -223 -205 -222 -229 -246 -211 -113
-2 -1 -1 0 0 0 0 0 0 0 0 0 0 0 0 0 0 0 0 0 0 0 0 0 0 0 0 0 0 0 -24 0 -24 -2 -12 0 -30 -14 -67 -148 0 0 -181 -145 -163 -206 -243 -229 -195 -173 -162 -197 -248 -160
-2 -1 0 0 0 0 0 0 0 0 0 0 0 0 0 0 0 0 0 0 0 0 0 0 0 0 0 0 -23 0 -29 0 -5 -3 0 0 -1 -13 -10 -21 0 0 -51 -108 -96 -138 -169 -188 -193 -189 -190 -204 -258 -255
-1 0 0 0 0 0 0 0 0 0 0 -1 0 0 0 0 0 0 0 0 0 0 0 0 0 0 0 0 -44 -1 0 0 0 -2 0 0 0 -2 -1 0 0 0 -13 -76 -61 -63 -137 -156 -174 -202 -187 -193 -269 0
-3 -2 0 0 0 0 0 0 0 0 0 0 0 0 0 0 0 0 0 0 0 0 0 0 0 0 0 -41 -9 0 0 0 -2 -8 0 -7 -3 -1 0 0 0 -58 -10 -2 0 0 0 -17 0 0 -156 -210 -252 -254
-1 -2 0 0 0 0 0 0 0 0 0 0 0 0 0 0 0 0 0 0 0 0 0 -38 0 0 0 -34 0 0 0 0 -8 -20 -19 0 0 0 0 -20 -15 0 0 0 0 0 0 0 0 0 0 0 0 0
-1 -1 0 0 0 0 0 0 0 0 0 0 0 0 0 0 0 0 0 -55 0 0 0 0 0 0 0 0 0 0 -16 -14 0 0 0 0 0 0 0 0 0 0 0 0 0 0 0 0 0 0 0 0 0 0
-3 0 0 0 0 0 0 0 0 0 0 -1 0 0 0 0 0 0 0 0 0 0 -53 0 -46 -42 0 0 0 0 -1 0 0 0 0 0 0 0 0 0 0 0 0 0 0 0 0 0 0 0 0 0 -142 0
-3 0 0 0 0 0 0 0 0 -1 0 0 0 0 0 0 0 0 -187 0 0 0 0 0 0 0 0 0 -5 0 0 -1 -50 0 0 -23 -31 0 0 0 0 0 0 0 0 0 0 0 0 0 0 0 -47 0
0 0 0 0 0 0 0 0 0 0 0 0 0 0 0 0 0 0 -123 0 0 0 0 0 0 0 0 0 -33 -34 0 0 -3 0 -15 -3 -14 0 0 0 0 0 0 0 0 0 0 0 0 0 0 0 0 0
0 0 0 0 0 0 0 0 0 0 0 0 0 0 0 -136 -68 -171 -242 0 0 0 0 0 0 0 0 -27 -70 -49 -45 -45 -5 -18 -28 -76 -67 0 0 -2 0 -2 -1 0 -1 0 0 0 0 0 0 0 0 -58
0 0 0 0 0 0 0 0 0 -12 0 0 0 0 -12 -219 -184 0 0 0 0 0 0 0 0 0 0 -109 -110 -98 -80 -71 -52 -37 -33 -1 -64 -66 -10 -2 0 0 -1 -1 0 0 0 0 0 0 -1 0 0 0
0 0 0 0 0 0 0 0 0 0 0 0 0 0 -88 -104 -151 -208 0 0 0 0 0 0 0 0 -30 0 0 0 -110 -102 -159 -122 -108 -91 -25 -19 -1 0 0 0 0 -5 -1 0 0 0 0 0 0 0 0 0
0 0 0 0 0 0 0 0 -8 0 0 0 0 -27 -108 -130 -120 0 0 0 0 0 0 0 0 0 0 0 0 0 0 0 0 0 -82 -116 -81 -35 -6 -1 0 0 0 0 0 0 0 0 0 0 0 0 0 0
0 0 -8 -2 0 -1 -1 -17 0 0 0 0 0 -31 -82 -187 0 0 0 0 0 0 0 0 0 0 0 0 0 0 0 0 0 0 0 0 0 -60 -44 -3 0 -10 -2 0 -25 0 0 0 0 0 0 0 0 0
0 0 0 0 -2 0 0 -11 0 0 -23 -56 -60 -51 -113 -235 -95 0 0 0 0 0 0 0 0 0 0 0 0 0 0 0 0 0 0 0 0 0 0 -33 -3 0 0 -14 -9 -14 -17 -31 -6 -30 -29 -43 0 0
0 -1 0 0 -2 -1 -9 -10 0 0 -46 -13 -48 -138 -199 -113 -74 0 0 0 0 0 0 0 0 0 0 0 0 0 0 0 0 0 0 0 0 0 0 0 -35 -19 -17 0 0 0 -16 -21 -16 -21 -38 0 0 0
-6 0 -2 0 0 0 0 0 -58 -46 -32 -28 -36 -110 -81 -23 -38 0 0 0 0 0 0 0 0 0 0 0 0 0 0 0 0 -53 0 0 0 0 0 0 0 0 -103 -78 -64 -46 -28 -9 0 -7 0 -2 -11 -27
0 0 0 -1 0 0 0 -14 -28 -13 0 0 0 -49 -19 -52 -42 0 0 0 0 0 0 0 0 0 0 0 0 0 0 0 0 0 0 0 0 0 0 0 0 0 0 -19 -148 -103 -91 -63 -25 -28 -20 -24 -32 -41
0 0 0 0 0 0 0 -33 -38 -84 0 0 -54 -38 -52 -14 0 0 0 0 0 0 0 0 0 0 0 0 0 0 0 0 0 -56 -4 0 0 0 0 0 0 0 0 0 0 0 0 0 0 0 0 0 0 0
0 0 0 0 0 0 0 0 0 0 0 0 0 0 0 0 0 0 0 0 0 0 0 0 0 0 0 0 0 0 0 0 0 0 0 0 0 0 0 0 0 0 0 0 0 0 0 0 0 0 0 0 0 0
0 0 0 0 0 0 0 0 0 -49 -171 0 0 0 0 0 0 0 0 0 0 0 0 0 0 0 0 0 0 0 0 0 0 0 0 0 0 0 0 0 0 0 0 0 0 0 0 0 0 0 0 0 0 0
0 0 0 0 0 -38 -166 -136 -137 0 0 0 -68 0 -177 -160 -46 0 0 0 0 0 0 0 0 0 0 0 0 0 0 0 0 0 0 0 0 0 0 0 0 0 0 0 0 0 0 0 0 0 0 0 0 0
0 0 0 0 -92 -85 -120 -114 -10 0 0 0 0 0 0 0 0 0 0 0 0 0 0 0 0 0 0 0 0 0 0 0 0 0 0 0 0 0 0 0 0 0 0 0 0 0 0 0 0 0 0 0 0 0
Wind_Speed
9 9 10 10 10 9 9 10 11 12 14 15 15 14 14 13 13 4 2 3 3 2 7 6 4 5 1 2 3 3 6 2 2 1 4 4 4 5 1 4 8 9 7 5 3 3 7 6 4 6 7 3 4 5
9 9 9 9 10 10 11 12 12 12 13 14 14 13 12 12 11 5 2 3 1 3 7 2 6 5 6 6 5 2 4 3 5 2 2 1 2 1 3 4 1 3 8 7 10 9 4 5 6 5 3 4 5 4
9 9 9 8 9 11 12 12 11 12 12 12 13 13 11 10 8 5 3 2 2 2 6 4 4 2 1 7 8 5 4 6 3 4 3 3 4 4 4 6 2 4 4 3 1 5 7 5 6 6 5 8 7 6
10 9 9 9 8 11 11 11 11 10 11 12 13 13 10 10 9 4 1 2 2 1 2 8 3 6 2 3 8 12 6 2 2 1 2 3 3 3 3 3 4 4 5 4 5 7 7 7 4 7 7 6 5 6
10 10 9 10 10 8 10 10 11 10 10 11 12 13 12 9 8 4 1 2 3 2 3 7 10 5 6 5 8 10 11 4 2 2 2 5 2 2 2 1 5 5 7 5 7 9 5 7 4 5 7 5 5 6
9 10 10 10 10 9 8 9 10 11 11 11 12 14 11 8 5 2 2 0 3 3 2 5 5 6 5 6 6 3 5 3 3 5 5 4 5 5 5 5 6 7 4 7 8 5 7 7 6 6 6 5 6 5
9 9 9 10 10 10 9 10 11 12 11 11 12 13 9 6 1 2 3 2 5 1 1 5 6 5 5 4 2 1 2 3 4 4 4 5 4 6 3 12 5 7 9 9 10 3 7 6 7 6 6 5 3 4
9 9 10 10 10 10 10 10 11 11 12 12 16 12 5 3 3 3 2 6 5 2 1 2 6 6 3 4 4 1 1 1 2 3 3 2 3 2 6 6 7 11 10 8 13 10 15 3 4 6 7 4 3 4
10 10 10 10 10 10 10 10 10 11 12 13 7 4 3 1 1 2 1 9 2 1 2 2 2 5 4 2 3 3 1 2 1 2 3 1 3 6 7 9 9 5 4 7 11 9 8 9 6 9 8 5 4 6
11 11 10 10 10 10 9 9 9 11 12 2 1 1 1 1 3 3 1 1 2 1 1 4 1 5 2 2 4 3 1 2 3 4 2 1 5 5 5 6 5 6 5 6 3 7 3 4 7 6 6 2 7 7
11 11 10 10 10 9 8 7 7 10 4 3 3 0 2 7 3 1 2 2 1 3 4 5 6 3 1 2 4 2 3 2 2 4 2 3 3 7 10 8 7 7 7 3 1 3 3 1 3 2 4 2 6 7
11 11 11 11 9 9 7 5 2 1 2 3 2 1 2 1 0 2 3 1 4 5 4 5 5 6 4 2 1 2 3 1 5 1 2 3 5 14 12 12 11 8 7 5 3 4 6 6 6 4 4 5 3 3
11 11 11 11 9 8 7 4 4 3 4 1 1 1 3 1 2 5 5 3 3 4 4 2 2 3 1 1 2 2 2 6 1 2 4 3 8 9 12 13 15 11 9 7 6 5 6 6 6 6 6 5 5 2
13 12 12 11 10 8 7 6 5 5 2 1 2 3 5 4 6 6 5 4 4 3 2 2 2 1 1 1 1 2 5 2 3 3 3 2 5 10 13 11 12 13 10 7 8 8 9 9 7 6 5 5 6 5
13 13 13 15 15 11 8 6 9 1 2 3 3 5 7 6 4 4 4 3 2 2 3 1 2 2 1 2 1 2 4 3 1 1 2 3 5 6 8 9 12 11 9 7 5 6 6 6 7 4 4 6 6 6
14 15 5 8 5 5 10 9 2 2 2 3 5 4 4 1 4 2 2 4 2 3 2 3 2 2 3 2 2 5 4 2 0 2 5 6 10 9 9 9 9 8 7 7 7 6 7 6 6 6 6 4 6 6
11 3 8 3 8 13 10 2 2 3 4 5 5 3 3 4 5 4 2 3 2 3 1 2 1 4 0 2 3 1 2 4 8 8 6 7 11 12 11 10 11 9 8 7 6 6 6 7 5 5 8 8 7 5
3 3 2 7 3 5 1 1 2 4 7 5 3 3 3 4 3 3 3 3 3 3 4 4 3 0 2 3 4 3 4 7 7 8 8 9 9 9 8 10 10 8 8 7 7 6 6 7 6 4 7 6 5 4
5 6 3 6 4 2 2 3 3 4 7 3 4 3 4 4 4 2 2 2 2 2 5 3 2 2 3 2 3 6 7 6 7 8 7 7 7 8 8 6 7 8 8 6 6 7 5 6 4 4 5 5 2 2
13 11 9 10 3 2 3 3 3 4 4 4 3 3 4 3 1 3 3 1 2 3 2 3 4 4 3 2 3 3 4 4 4 4 5 5 5 6 6 7 6 7 8 9 5 6 4 3 2 3 4 4 2 0
3 3 8 7 2 2 2 2 4 4 4 3 2 2 2 1 2 3 3 2 2 3 3 4 3 3 5 4 4 3 5 3 3 2 3 6 7 7 8 8 7 5 4 3 3 5 3 3 3 3 2 1 0 1
2 5 2 4 3 2 3 4 4 3 2 4 3 2 2 3 3 4 3 1 3 4 4 5 4 5 5 3 3 4 6 6 6 6 7 6 7 11 12 9 6 5 4 3 2 4 1 2 2 1 1 2 3 3
0 3 2 3 3 5 6 3 3 4 4 4 2 2 2 2 1 2 1 3 4 3 4 4 5 4 4 2 3 6 5 6 7 7 7 6 6 7 12 10 6 3 1 0 2 1 2 2 2 2 3 5 5 6
1 3 3 4 5 4 2 3 3 3 3 3 2 3 2 3 2 1 3 3 4 3 4 5 4 2 2 3 4 5 4 2 5 7 5 5 4 3 7 11 9 6 3 3 3 3 3 4 4 4 5 8 8 8
4 5 4 5 4 4 4 4 4 2 5 5 3 3 3 3 3 3 4 4 3 4 4 4 4 4 4 3 4 5 3 3 4 6 5 3 3 2 3 5 12 11 6 5 6 5 6 5 5 6 8 8 9 10
5 5 6 4 3 4 4 3 5 6 3 3 5 1 2 3 2 5 4 4 4 5 7 8 7 4 4 5 4 4 3 2 1 3 4 4 4 2 3 4 7 9 7 6 8 8 9 7 6 9 10 11 11 10
4 5 4 3 2 3 4 3 2 2 2 3 2 4 3 3 5 5 2 3 4 5 6 7 7 7 6 4 4 5 3 3 4 4 5 4 3 3 3 3 4 3 3 5 6 6 4 5 6 6 9 9 8 6
4 3 4 2 3 3 3 3 3 4 3 2 1 3 3 5 5 4 5 3 3 4 5 5 6 6 4 5 4 4 3 1 2 1 2 4 4 4 5 3 2 2 2 3 2 2 3 2 4 9 8 8 4 3
4 2 2 3 4 4 5 5 4 4 3 4 3 3 4 3 2 2 3 3 4 5 5 5 3 3 2 3 2 3 1 1 2 3 1 2 4 4 4 4 3 3 3 6 12 8 5 6 7 7 7 5 5 6
5 4 3 3 4 6 5 6 4 3 3 3 2 2 3 3 3 1 2 4 5 6 4 4 5 6 5 4 3 2 2 3 3 4 3 2 3 1 2 3 4 4 4 6 6 7 10 8 8 6 7 6 7 8
2 4 3 4 4 5 7 4 0 0 1 2 1 3 3 3 3 2 3 3 3 4 5 4 4 4 5 5 4 4 1 3 5 6 4 3 5 5 3 2 3 3 4 6 6 6 7 8 7 8 9 9 9 9
4 7 5 4 4 3 1 4 4 4 2 1 1 2 1 2 3 3 4 5 4 4 6 5 5 5 7 4 3 3 6 3 4 5 8 6 5 5 5 4 4 4 5 6 6 6 9 8 7 8 9 10 9 8
4 4 4 3 3 2 1 1 1 1 1 2 2 3 4 4 5 4 0 3 5 8 7 5 5 4 6 6 5 4 6 4 5 8 9 12 13 9 5 4 4 6 8 7 6 6 7 8 7 7 6 6 6 6
Wind_Direction
294 294 295 299 304 312 322 329 337 342 350 354 357 358 3 6 5 41 290 357 92 208 273 207 222 186 189 139 176 286 2 333 345 166 168 228 199 230 198 206 182 172 166 204 101 143 273 174 114 171 218 210 213 237
288 295 302 307 313 321 325 329 335 337 342 346 349 349 353 359 359 35 1 339 24 178 252 284 258 260 213 181 132 252 224 256 230 110 230 149 265 274 178 244 51 232 185 186 176 207 237 205 212 231 168 240 254 245
278 284 290 297 312 319 323 326 329 333 335 337 340 344 343 344 343 346 306 317 32 348 303 348 258 334 198 210 185 166 261 224 254 188 190 222 225 134 194 240 230 248 153 194 110 257 240 242 256 253 254 236 251 247
274 274 281 282 287 310 317 321 323 327 326 326 330 332 329 330 327 321 251 169 97 220 297 281 319 293 200 196 190 214 224 53 71 97 204 194 193 174 229 260 200 207 134 179 264 284 286 277 249 260 276 248 269 264
283 275 276 279 280 292 309 316 320 319 311 312 317 324 328 322 311 296 246 239 160 114 282 283 305 255 257 235 235 223 228 186 123 333 210 228 221 129 238 73 250 187 190 169 227 229 194 248 270 261 254 256 275 259
296 285 277 277 275 275 290 304 302 295 299 303 313 322 317 319 343 67 25 246 197 184 325 311 298 292 309 293 287 265 172 149 177 173 219 237 246 154 187 224 248 212 212 203 243 225 210 252 276 262 256 253 265 263
312 305 293 282 276 272 273 282 291 298 300 301 303 310 297 291 112 170 180 192 151 201 278 304 308 270 285 286 312 77 88 185 165 218 228 214 231 169 200 244 229 242 238 246 232 198 276 224 243 231 233 248 242 295
311 305 298 293 282 274 271 281 291 298 301 301 313 295 267 272 278 310 272 218 152 218 74 292 275 324 2 310 312 39 320 23 232 250 309 261 359 194 243 238 222 232 247 279 266 231 245 211 180 239 250 245 238 291
305 304 301 297 289 277 275 283 294 301 309 317 341 110 87 69 56 274 64 139 193 230 280 218 240 271 357 287 267 332 54 300 256 242 258 352 279 231 237 218 223 209 205 269 296 274 235 216 223 230 233 217 198 226
308 304 301 297 291 279 273 283 298 308 318 341 28 39 38 331 294 31 170 91 343 236 247 249 229 260 93 353 301 338 34 279 323 263 304 314 263 293 336 314 304 296 276 259 325 316 252 216 207 228 226 156 198 191
300 303 300 298 290 277 270 282 303 325 42 37 20 56 277 320 45 11 217 214 147 250 217 233 200 244 281 190 242 203 286 255 302 277 70 292 313 328 330 341 330 320 314 13 169 279 5 145 135 54 353 305 199 185
301 301 303 301 290 275 265 267 274 13 134 178 210 288 312 57 129 255 229 209 205 236 207 200 221 197 267 170 209 248 272 15 252 2 202 8 319 342 354 2 344 337 320 334 20 48 27 3 7 23 9 356 332 241
306 298 299 297 287 267 254 239 206 145 98 144 197 269 101 230 25 205 207 229 245 212 227 229 266 207 316 229 251 354 284 235 338 239 100 230 310 326 354 353 349 351 350 350 349 346 38 355 337 10 356 339 341 307
306 299 297 291 278 257 232 215 169 129 106 165 189 294 215 211 239 202 200 206 236 190 184 170 258 182 254 256 156 271 251 324 305 17 73 301 326 319 333 345 339 330 336 343 340 348 2 333 321 323 340 323 315 312
309 301 293 285 258 231 205 190 143 109 149 235 166 229 224 232 257 237 238 295 268 102 110 58 36 82 294 302 193 330 304 262 269 80 272 285 283 298 299 303 313 320 318 323 317 313 298 288 287 302 307 302 300 295
318 307 250 240 261 180 164 122 115 149 226 231 233 253 238 317 283 284 228 254 200 119 98 67 73 32 291 201 275 235 296 271 281 246 295 301 297 292 285 293 289 287 292 301 307 300 297 303 312 314 310 328 314 298
313 251 341 67 108 115 124 118 156 216 244 231 241 223 242 270 231 238 213 239 175 101 138 101 334 229 48 281 267 196 271 284 300 294 285 267 278 285 282 281 288 296 297 300 308 313 304 303 311 334 336 333 328 323
241 307 31 129 129 121 120 200 234 241 245 233 238 248 204 228 245 253 226 204 157 137 134 184 146 26 249 275 301 294 292 301 299 288 294 293 285 272 265 275 286 284 283 292 296 294 299 319 322 314 315 331 329 357
277 291 285 225 228 223 181 192 209 258 242 230 244 231 230 244 237 220 133 99 81 112 115 70 144 198 246 254 300 323 320 318 319 322 314 319 322 313 299 287 284 290 290 284 293 291 296 295 285 305 310 318 333 353
280 262 234 222 240 194 210 228 194 250 260 234 231 239 220 226 76 94 91 97 120 95 87 182 203 203 201 240 209 233 266 289 311 335 338 315 316 317 311 304 288 282 288 300 285 276 304 302 287 294 311 311 288 18
272 203 171 172 203 228 258 266 242 234 275 263 253 216 251 125 131 141 180 158 75 179 199 203 200 209 213 220 221 262 291 282 286 279 294 306 323 314 320 323 296 283 266 274 283 295 280 255 268 280 298 325 43 85
233 153 117 163 211 205 256 224 247 290 274 255 300 210 197 203 190 197 148 113 216 220 179 167 192 205 216 222 230 237 259 288 286 282 272 278 315 318 320 312 303 284 265 246 238 282 285 249 257 298 346 91 110 103
122 188 195 150 203 211 255 156 224 224 239 254 313 240 236 211 172 101 134 219 249 213 168 180 197 195 201 248 251 267 266 277 289 288 294 297 283 303 337 344 327 291 248 267 239 163 126 174 92 70 60 63 78 88
132 202 212 206 209 252 197 218 220 252 257 258 230 263 183 146 150 107 235 231 238 156 159 198 146 147 337 298 266 267 286 269 283 293 279 271 291 305 321 346 2 14 56 122 88 75 66 65 55 49 56 67 68 79
203 219 202 230 214 212 220 224 220 213 245 206 206 252 174 126 151 209 235 256 207 180 170 167 166 183 205 258 281 273 246 228 298 308 300 296 286 292 296 346 7 19 26 75 62 64 64 58 56 68 73 65 66 78
229 204 199 217 194 219 223 236 200 214 229 237 222 117 128 129 171 244 232 219 197 170 177 181 184 174 236 216 251 281 282 183 203 295 289 338 337 14 354 61 40 24 13 37 61 64 66 57 62 89 96 79 57 66
236 233 210 231 253 267 274 245 282 269 256 236 191 171 174 199 223 250 256 217 184 202 184 173 170 185 210 227 238 250 250 232 204 247 289 302 325 56 73 88 143 181 281 52 50 38 26 41 61 89 106 98 83 64
241 251 210 177 209 217 262 277 213 219 248 249 74 194 214 207 229 233 216 223 193 161 157 174 186 185 188 221 243 281 302 150 272 91 331 310 359 39 42 31 62 155 264 325 280 291 298 278 67 95 114 119 84 53
232 235 191 239 226 239 219 214 231 225 204 155 183 223 241 229 235 217 224 190 159 133 142 165 194 143 201 246 257 248 217 168 77 30 52 359 354 341 10 38 31 55 79 77 46 46 75 97 98 90 82 73 66 74
237 177 212 234 215 223 233 185 222 230 192 195 173 349 327 275 250 201 144 148 157 180 180 161 153 163 185 182 229 272 235 203 185 161 172 180 207 185 58 56 62 48 67 82 73 53 38 65 66 69 82 84 85 84
183 172 231 224 246 231 223 202 162 339 212 226 203 160 244 293 306 251 181 187 141 130 130 137 151 176 168 195 190 159 224 226 203 216 204 135 133 132 129 120 90 71 66 80 83 84 83 69 73 80 78 76 73 86
195 199 197 217 249 256 144 172 183 192 220 213 231 198 299 9 268 261 207 138 146 174 202 164 169 198 203 209 197 206 194 167 174 196 174 152 153 152 136 135 122 103 90 82 78 85 87 86 81 81 81 84 87 90
205 181 209 263 270 281 322 103 126 268 228 207 246 200 201 192 236 262 289 202 184 187 190 193 193 169 163 179 203 236 249 237 202 175 167 152 149 149 143 147 135 128 122 116 109 111 108 111 107 106 104 109 113 117